Zurück zum Katalog

STARLINK-4475

AktivKommunikationVLEO
NORAD 53545·PAYLOAD·🇺🇸 United States

Gestartet Aug 19, 2022 von Cape Canaveral Space Force Station

Loading…

Nächste Überflüge (nächste 24 Stunden)

TLE

AktuellSource: CelesTrak SupGP

Epoche: Sep 15, 2026, 01:55 UTC

1 53545C 22101U   26258.08034722  .00010382  00000+0  30672-3 0  2589
2 53545  53.1588 279.0055 0001291  85.1141  43.6657 15.34387136    18

Verfolge STARLINK-4475 in Echtzeit mit AllMySat

Download on the App Store